Theta_e
299 299 299 299 298 299 302 303 304 304 302 300 301 299 294 291 290 290 291 291 290 290 291 291 291 291 291 290 290 290 289 289 288 287 287 287 287 287 287 287 287 287 286 286 285 284 284 284 284 284 284 284 284 284 283 283 283 282 282 282 281 281 280 279 279 278 279 280 280 280 280 280 280 280 280 280 279 279 279 279 279 279 279 278 278
299 299 299 299 298 299 301 303 303 302 300 298 298 296 292 290 290 290 290 290 290 290 290 291 291 291 290 290 290 289 289 288 288 287 287 287 287 287 287 287 287 286 286 285 285 284 283 283 283 283 283 283 283 283 283 283 282 282 282 281 281 281 280 279 278 278 278 279 279 280 280 279 279 279 279 279 279 279 279 278 278 278 278 278 278
299 299 299 299 299 299 298 299 299 299 298 297 296 294 291 289 289 290 290 290 290 290 290 291 290 290 290 289 289 289 288 288 287 287 287 287 287 287 287 287 287 286 286 285 285 284 283 283 283 283 283 283 283 283 282 282 282 281 281 281 281 280 280 279 278 278 277 278 278 278 279 279 279 279 279 278 278 278 278 278 278 278 278 277 277
299 298 298 298 298 297 297 296 296 295 295 295 295 293 290 288 289 289 289 289 289 289 290 290 290 290 289 289 289 288 288 287 287 287 286 286 287 287 287 287 286 286 286 285 285 284 284 283 283 283 283 283 283 282 282 282 281 281 281 281 280 280 279 278 278 278 277 277 277 277 277 278 278 278 278 278 278 278 278 278 278 277 277 276 276
299 298 297 297 296 295 294 294 293 292 292 293 293 291 289 288 288 288 289 289 289 289 289 289 289 289 289 289 288 288 288 287 287 286 286 286 286 287 287 287 286 286 285 285 284 284 284 283 283 283 283 283 283 282 282 282 281 281 281 281 280 279 279 278 278 277 277 276 277 277 277 277 277 277 277 277 277 278 278 278 277 277 276 276 276
298 297 296 295 294 293 292 292 292 291 290 290 290 289 288 287 288 288 288 288 288 288 289 289 289 289 289 288 288 288 287 287 286 286 286 286 286 286 286 286 286 285 285 285 284 284 283 283 283 283 283 283 283 282 282 281 281 281 281 280 280 279 278 278 278 277 277 277 276 276 277 277 277 277 277 276 276 277 278 278 277 276 276 275 276
297 296 295 294 293 293 291 291 291 290 290 289 288 288 287 287 287 287 287 288 288 288 288 289 289 288 288 288 288 287 287 287 286 286 286 286 286 286 286 286 286 285 285 285 284 284 283 283 283 283 283 283 283 282 282 281 281 281 280 280 279 279 278 278 277 277 277 277 276 276 277 277 276 276 276 276 275 276 277 277 277 276 275 275 275
296 295 294 293 293 292 291 290 290 290 289 288 287 287 287 287 287 287 287 287 288 288 288 288 288 288 287 287 287 287 287 286 286 286 286 286 286 286 286 286 286 285 285 285 284 284 284 283 283 283 283 283 282 282 281 281 281 280 280 280 279 278 278 277 277 277 277 276 276 276 276 276 276 276 276 275 275 276 276 275 275 275 274 274 274
295 295 294 293 293 292 291 290 290 289 288 287 286 286 286 286 286 286 286 287 287 287 288 288 287 287 287 287 287 286 286 286 286 286 286 286 286 286 286 286 286 285 285 285 284 284 284 284 283 283 282 282 282 282 281 281 280 280 280 279 279 278 278 277 277 277 276 276 276 276 275 275 275 275 275 275 275 275 275 275 275 274 274 274 274
295 294 293 293 292 291 290 289 288 287 287 286 286 285 285 285 285 285 286 286 287 287 287 287 286 287 287 287 287 286 286 286 286 286 286 286 286 286 286 286 286 285 285 285 284 284 284 284 283 283 282 282 282 281 281 281 280 280 280 279 279 278 277 277 277 277 276 276 276 275 274 274 275 275 275 275 275 275 275 275 274 274 274 274 274
294 294 293 293 292 291 290 289 288 287 286 286 286 285 285 285 285 285 285 286 286 286 286 286 286 287 287 287 287 286 286 286 286 286 286 286 286 286 286 286 286 286 285 285 285 285 285 284 284 283 282 282 282 281 281 280 280 280 280 279 279 278 277 277 277 277 276 276 276 275 274 275 275 275 275 275 275 275 275 275 274 274 274 274 274
293 293 293 292 291 290 289 289 288 287 286 286 286 286 286 285 285 285 285 285 285 285 285 286 286 286 286 286 286 286 287 287 286 286 286 286 286 286 286 286 286 286 286 285 285 285 285 284 284 283 283 283 282 282 281 280 280 279 279 279 279 278 278 277 277 277 277 276 276 275 275 275 275 275 275 275 275 275 275 274 274 274 274 274 273
293 292 292 292 291 290 289 289 288 288 287 287 286 286 286 285 285 285 285 285 285 285 285 285 286 286 286 286 286 286 287 287 286 286 286 286 286 285 286 286 287 287 286 286 286 286 285 285 284 284 283 283 283 282 281 280 279 279 278 278 278 278 278 278 278 278 277 277 276 276 276 276 275 275 275 275 275 275 275 274 274 274 274 273 273
292 292 291 291 291 290 289 289 289 288 288 287 286 286 285 285 285 285 285 284 284 284 284 285 285 285 286 286 286 286 287 287 286 286 286 286 286 286 286 287 288 288 287 287 287 286 285 285 284 284 284 284 283 283 282 281 280 279 278 278 278 279 279 279 279 278 278 277 277 277 277 276 276 276 275 275 275 275 275 275 274 274 273 273 272
291 291 291 290 290 290 289 289 289 289 288 287 286 285 285 285 284 284 284 284 284 284 284 284 285 285 286 286 286 286 286 286 286 286 286 286 286 286 286 287 288 288 288 287 287 286 285 284 284 284 284 284 284 283 282 281 280 279 278 278 278 278 278 278 278 278 278 278 277 277 277 276 276 276 275 275 275 275 275 274 274 273 273 272 271
290 290 290 290 290 289 289 289 288 288 287 286 285 285 284 284 284 284 284 284 284 284 284 284 285 285 286 286 286 286 286 286 286 286 286 286 285 286 287 287 288 288 288 287 287 286 285 284 284 285 285 285 284 283 282 281 280 279 278 278 278 278 278 278 277 277 277 277 277 277 276 276 276 275 275 275 276 276 275 274 273 273 272 271 270
290 290 290 290 289 289 289 288 288 287 286 286 285 285 284 284 284 284 284 284 284 284 284 284 284 285 285 286 286 286 286 286 286 286 286 286 285 286 287 287 287 288 288 287 286 285 285 284 284 285 285 285 284 284 282 280 280 279 278 278 278 278 278 278 278 277 276 276 276 275 275 275 275 275 276 277 277 276 275 274 273 272 271 270 268
289 289 289 289 289 288 288 288 287 287 286 286 286 285 285 284 284 284 284 284 284 284 283 283 284 284 285 286 286 286 286 286 286 286 286 286 286 286 287 286 286 287 287 287 286 285 284 284 285 284 285 285 284 284 282 280 279 279 279 278 278 278 279 280 279 277 277 276 275 275 275 276 276 276 277 278 277 276 275 274 273 272 271 269 268
289 289 289 289 289 288 288 288 288 287 287 286 286 285 285 285 285 285 284 284 284 284 284 284 284 285 285 285 285 285 286 286 286 286 286 285 286 286 286 285 285 285 285 285 285 285 284 284 284 284 285 285 284 283 282 280 279 279 279 278 277 278 280 281 279 278 277 276 276 275 275 276 276 277 277 278 277 276 275 274 273 271 270 269 268
289 289 289 289 288 288 288 288 287 287 287 286 286 286 286 286 286 285 285 285 285 285 285 285 285 285 285 285 285 285 285 285 285 285 285 285 285 285 284 283 283 283 284 284 284 284 284 284 284 284 284 283 282 282 281 279 278 279 278 277 277 279 280 280 278 277 277 276 276 276 275 275 275 276 277 277 277 276 275 274 273 271 270 269 268
289 289 289 288 288 288 288 287 287 287 287 287 287 287 287 286 286 286 286 286 286 285 285 285 285 285 285 284 284 284 284 285 285 285 284 284 284 283 282 282 282 282 282 282 282 283 283 283 284 284 283 282 282 281 280 280 279 279 278 278 279 279 279 278 277 277 276 275 275 275 275 275 275 275 275 276 275 275 275 274 273 271 270 269 268
289 289 288 288 288 288 287 287 288 288 288 288 287 287 287 287 287 287 287 286 285 285 284 284 284 284 284 284 284 284 285 285 284 284 283 283 282 281 281 281 282 282 282 282 282 282 282 282 282 282 281 281 281 281 280 280 280 279 279 279 279 279 278 277 277 276 275 275 275 275 275 275 275 275 275 275 275 275 274 274 272 271 270 269 268
289 288 288 288 288 288 288 288 288 288 288 288 287 287 287 287 286 286 285 285 284 284 283 283 283 283 283 283 284 284 284 284 283 283 282 282 282 281 280 280 281 281 282 282 282 282 282 281 281 281 281 280 280 280 280 280 279 279 279 279 280 280 279 279 278 277 276 276 275 275 275 275 275 275 275 275 275 275 274 273 272 271 269 268 268
289 288 288 289 288 288 289 289 288 288 288 287 287 287 286 286 285 285 284 284 283 283 283 282 282 282 282 283 283 283 283 283 283 282 282 282 281 280 280 280 280 280 280 281 281 281 281 281 281 281 281 281 280 280 280 280 279 279 279 279 280 280 280 280 279 278 277 276 276 275 275 275 275 276 276 275 275 274 273 272 272 271 269 268 268
289 289 289 289 289 289 288 288 288 288 287 287 286 286 285 285 284 284 284 283 283 283 282 282 282 281 281 282 282 282 282 282 281 281 281 281 280 280 280 280 280 279 279 280 280 280 280 280 280 280 280 280 280 279 279 279 279 279 279 279 279 279 280 280 280 279 278 277 276 275 275 275 275 275 275 275 274 273 273 272 272 271 269 268 267
289 289 289 288 288 288 287 287 286 286 286 286 286 285 285 285 284 284 283 283 282 282 282 281 281 281 281 281 281 281 280 280 280 280 280 280 280 280 279 279 279 279 279 279 280 280 279 279 279 279 280 280 279 279 279 279 278 278 278 279 279 279 279 279 279 279 278 277 276 276 276 276 275 275 274 273 273 273 272 272 271 270 269 268 267
288 288 287 287 287 286 286 286 285 285 285 284 284 284 284 284 284 283 283 283 282 282 281 281 281 280 280 281 281 280 279 279 279 279 279 279 279 279 279 279 279 278 278 278 279 279 279 279 278 278 278 278 278 278 279 279 278 278 278 278 278 278 278 278 278 278 278 277 276 276 276 275 274 273 273 273 272 272 272 271 270 269 269 267 266
287 287 286 286 286 285 285 285 285 284 284 284 284 284 284 283 283 283 283 283 282 282 281 281 281 281 281 281 280 280 279 279 279 279 279 279 278 278 278 278 278 278 277 277 277 277 277 277 277 276 276 276 276 277 277 278 278 278 277 277 277 277 277 277 277 277 277 277 276 275 275 274 273 273 272 272 272 272 271 270 269 269 268 266 265
287 287 286 286 286 285 285 285 285 284 284 284 283 283 283 283 283 283 283 282 282 282 282 281 281 281 281 280 280 279 279 279 279 278 278 278 277 277 277 277 277 277 277 277 277 277 276 276 275 275 274 274 275 275 276 277 277 277 277 276 276 276 276 276 276 276 276 276 276 275 274 273 273 272 272 271 272 271 270 269 269 268 267 265 265
287 286 286 286 285 285 285 284 284 284 284 284 283 283 283 283 282 282 282 282 282 281 281 281 280 280 280 279 279 279 278 278 278 278 277 277 277 277 277 277 277 277 277 277 277 277 276 276 275 275 275 274 275 275 276 276 276 276 276 276 276 276 275 275 275 275 275 275 275 274 274 273 272 272 271 271 271 271 270 269 268 267 266 265 264
287 286 286 286 286 285 285 285 284 284 284 284 283 283 282 282 282 282 282 281 281 280 280 280 279 279 279 279 278 278 278 278 277 277 278 278 278 278 278 278 278 278 278 277 277 277 276 276 276 276 275 275 275 275 275 275 276 276 276 275 275 275 275 275 275 275 275 274 274 273 272 272 271 271 271 271 271 270 269 268 267 266 265 265 264
288 286 286 286 286 286 286 286 285 285 284 284 284 283 282 281 281 281 281 281 280 280 279 278 278 278 278 278 278 278 278 278 278 278 278 278 278 278 278 278 278 278 278 278 278 278 277 277 276 276 276 276 276 276 275 275 275 275 275 275 275 274 274 274 274 274 274 273 273 272 272 271 271 271 270 270 270 269 268 267 267 266 265 264 264
288 287 286 286 286 285 286 285 285 285 284 284 284 283 283 282 281 280 279 279 279 278 278 278 277 277 277 277 277 277 277 277 277 277 277 277 277 277 277 278 278 278 278 278 278 278 277 277 276 275 275 275 274 274 274 274 274 274 274 274 274 274 273 273 273 273 273 272 272 272 271 270 270 270 269 269 269 268 267 266 266 265 265 264 264
286 286 285 285 285 285 284 284 284 284 283 283 283 282 282 281 281 280 278 277 277 277 277 276 276 276 276 276 275 276 276 275 276 276 276 276 276 276 276 276 276 277 277 276 276 275 274 274 273 272 272 272 271 271 271 271 271 271 271 271 271 272 272 272 272 272 272 271 271 271 270 270 269 269 268 268 267 267 266 266 265 265 264 264 264
285 285 284 284 284 284 284 283 283 283 282 282 281 281 280 280 280 279 278 278 277 276 276 275 275 275 275 275 274 274 274 274 274 274 273 273 273 274 274 274 274 274 274 274 273 272 271 270 270 269 269 269 269 269 269 269 269 269 269 269 269 269 270 270 270 270 270 270 270 270 269 269 268 268 268 267 266 266 266 266 265 264 264 264 263
284 284 283 283 283 283 283 282 282 282 281 281 280 280 280 279 279 278 278 277 277 276 275 274 273 273 273 273 272 272 272 272 272 272 272 271 272 272 272 272 272 271 271 271 271 270 269 269 268 268 267 267 267 267 266 266 266 266 266 266 267 267 267 267 268 268 268 268 268 268 268 267 267 267 267 266 266 265 265 265 265 264 264 263 263
283 283 282 282 282 282 281 281 280 280 280 280 279 279 278 277 277 276 276 275 275 275 274 273 273 272 271 271 271 271 270 270 270 270 270 270 270 270 270 269 269 269 269 268 268 268 268 267 267 267 266 266 265 265 264 264 264 263 263 263 263 264 264 265 265 266 266 266 266 266 266 266 266 266 266 265 265 265 265 264 264 263 263 263 262
281 281 281 280 280 280 280 280 279 279 278 278 277 277 276 275 275 274 274 273 273 272 272 272 272 271 270 270 269 269 270 270 270 270 269 269 269 269 268 268 267 267 267 266 266 266 266 265 265 265 264 264 264 263 263 262 262 262 262 262 262 262 262 263 263 264 264 264 264 264 265 265 265 265 265 265 265 265 264 264 263 263 263 262 261
280 279 279 279 279 279 279 278 278 277 277 276 275 275 275 274 274 273 273 272 271 271 270 270 270 270 269 269 268 268 269 269 269 269 269 268 268 267 267 266 266 265 265 265 264 264 264 264 264 263 263 263 263 262 262 262 262 261 261 261 261 261 261 262 262 262 263 263 263 263 263 263 263 263 263 263 263 263 263 263 263 262 262 261 261
279 278 278 278 277 277 277 276 276 275 275 275 274 274 274 273 273 272 272 271 270 269 269 269 269 268 268 267 266 267 268 268 267 267 267 266 266 266 265 265 265 264 264 263 263 263 263 263 263 263 263 262 262 262 262 262 261 261 261 261 261 261 261 261 261 261 261 262 262 262 262 262 262 262 262 262 262 262 262 262 262 262 261 261 261
278 277 276 276 276 276 275 275 274 274 274 273 273 273 273 272 271 271 270 270 269 269 268 268 268 267 267 266 265 266 266 266 266 265 265 265 265 264 264 264 264 263 263 263 263 262 262 262 262 262 262 262 262 262 262 261 261 261 261 261 261 261 261 261 261 260 260 261 261 261 261 261 261 261 261 261 261 261 261 261 261 261 260 260 260
277 276 275 275 274 274 274 274 273 273 272 272 272 271 271 271 270 270 269 269 268 268 268 268 267 267 266 265 265 265 265 265 264 264 264 264 264 263 263 263 263 263 263 262 262 262 262 263 262 262 262 262 262 262 261 261 261 261 261 261 261 261 261 261 261 260 260 260 260 260 260 260 260 260 260 260 260 260 260 260 260 260 260 260 260
275 275 274 274 273 273 273 273 272 272 272 271 271 270 270 269 269 269 268 268 268 267 267 266 266 266 265 265 265 264 264 264 264 263 263 263 263 263 263 263 263 263 263 262 262 262 262 262 262 262 262 262 262 261 261 261 261 261 261 260 260 260 261 261 260 260 259 259 259 259 259 259 259 260 260 260 260 259 260 259 259 259 259 259 259
274 274 273 273 272 272 272 272 271 271 271 270 270 269 269 268 268 268 267 267 266 266 266 265 265 265 264 264 264 264 263 263 263 263 263 263 263 263 263 263 263 263 263 262 262 262 262 262 262 262 262 262 261 261 261 261 261 260 260 260 260 260 260 260 260 260 259 259 258 258 258 258 259 259 259 259 259 259 259 259 259 259 258 258 258
273 273 273 272 272 271 271 270 270 270 269 269 268 268 267 267 267 266 266 265 265 265 265 264 264 264 264 263 263 263 263 263 263 263 263 263 263 263 263 263 263 263 263 262 262 262 262 262 262 262 262 262 262 261 261 261 261 260 260 260 260 260 260 260 260 260 259 259 259 258 258 258 258 258 258 258 258 258 258 258 258 258 258 258 258
272 272 271 271 270 270 269 269 268 268 268 267 267 267 266 266 265 265 265 264 264 264 264 264 263 263 263 263 263 263 263 263 263 263 263 263 263 263 263 263 262 262 262 262 262 262 262 262 261 261 261 262 261 261 261 261 260 260 260 260 260 260 260 260 260 260 259 259 259 259 259 259 258 258 258 258 258 258 258 258 258 258 258 258 258
270 270 269 269 269 268 268 267 267 267 266 266 266 265 265 265 264 264 264 263 263 263 263 263 263 263 263 263 263 263 263 263 263 263 263 263 263 262 262 262 262 262 262 262 262 261 261 261 261 261 261 261 261 261 261 260 260 260 260 260 260 260 260 260 260 260 260 259 259 259 259 259 259 259 258 258 258 258 258 258 258 258 257 257 257
268 268 268 268 267 267 267 266 266 266 265 265 265 265 264 264 263 263 263 263 263 263 263 263 263 262 263 263 263 262 262 262 263 262 262 262 262 262 262 262 262 262 262 262 261 261 261 261 261 260 260 261 261 261 261 260 260 260 260 260 259 259 259 259 260 260 259 259 259 259 259 259 259 259 258 258 258 258 257 257 257 257 257 257 257
267 267 267 267 266 266 266 265 265 265 265 264 264 264 263 263 263 262 262 262 262 262 262 262 262 262 262 262 262 262 262 262 262 262 262 262 262 262 262 262 262 262 261 261 261 261 261 261 261 261 261 261 261 261 261 261 261 260 260 260 260 259 259 259 259 259 259 259 259 259 259 259 259 259 258 258 258 258 258 257 257 257 257 256 256
267 266 266 266 265 265 265 264 264 264 264 263 263 263 263 262 262 262 262 262 262 262 262 262 262 262 262 262 262 262 262 262 262 262 262 262 262 262 261 261 261 261 261 261 261 261 262 262 262 262 261 261 261 261 261 261 261 261 261 261 260 260 260 259 259 259 259 259 259 259 259 259 258 258 258 258 258 258 257 257 257 257 256 256 257
266 265 265 265 264 264 264 264 264 264 263 263 263 263 262 262 262 262 262 262 262 262 262 262 262 262 262 262 262 262 262 262 262 262 262 262 262 261 261 261 261 261 261 262 262 262 262 262 262 262 262 262 262 262 261 261 261 261 261 261 261 261 260 260 259 259 258 258 258 258 258 258 258 258 258 258 257 257 257 257 257 257 257 257 257
Wind_Speed
35 36 36 36 36 36 37 38 39 39 38 38 39 41 45 47 47 46 45 44 44 43 42 40 39 37 36 35 33 32 31 29 28 26 25 23 22 20 19 17 15 14 14 14 14 14 14 14 14 13 12 11 11 10 11 12 13 13 13 13 13 13 13 14 15 16 16 15 14 15 17 18 19 18 20 22 23 23 23 23 22 21 21 22 23
36 36 36 37 37 37 38 39 39 39 39 38 39 42 45 47 47 46 45 45 45 44 42 41 39 38 37 35 34 32 31 29 28 27 25 24 22 20 18 17 16 15 15 15 16 16 16 16 15 14 13 12 12 12 12 14 14 15 15 15 14 15 15 16 17 16 17 17 16 16 17 18 19 19 20 23 24 24 25 24 23 21 21 22 24
37 36 37 37 37 37 37 39 39 39 40 40 40 43 45 47 47 46 46 46 45 44 42 41 40 38 37 36 34 33 31 30 28 27 25 24 22 20 18 17 16 16 16 17 17 17 17 17 17 15 14 13 13 13 14 15 16 16 16 16 16 16 16 17 18 17 17 18 17 16 17 18 19 20 20 22 24 25 26 25 23 22 21 22 24
36 36 37 37 37 37 38 38 39 40 40 41 41 43 45 47 47 46 46 46 45 44 42 41 40 39 37 36 34 33 31 30 29 27 25 24 22 20 18 17 16 16 16 16 17 18 18 18 18 16 15 14 14 15 16 16 17 17 17 17 17 17 18 19 19 18 17 18 18 18 18 19 20 20 21 23 24 24 25 25 24 23 21 22 24
36 36 36 36 36 37 37 38 39 39 40 40 41 43 45 46 46 46 45 45 44 43 42 41 40 39 37 36 35 34 32 30 29 27 25 23 21 19 17 16 16 16 16 16 17 18 18 18 18 17 16 16 16 17 17 17 18 18 19 19 19 19 19 19 20 19 19 21 22 22 21 21 21 21 20 22 25 27 26 25 23 22 23 23 24
36 36 35 35 35 35 36 37 38 38 38 39 40 42 44 45 45 45 44 44 44 43 42 41 40 39 38 36 35 34 32 30 29 27 25 23 21 19 17 16 16 16 16 17 17 18 18 18 18 18 18 18 18 18 19 18 19 20 20 21 20 20 20 21 20 20 20 22 23 23 23 22 22 22 20 19 23 26 27 27 24 21 22 25 26
35 35 34 34 34 35 36 36 37 37 38 38 39 41 43 44 44 44 43 43 43 43 42 41 40 39 38 36 35 34 32 30 29 27 25 23 22 20 18 17 16 16 17 18 19 19 19 19 19 19 19 19 19 19 19 19 20 21 21 21 21 21 21 22 21 21 21 22 23 23 24 23 22 22 20 19 20 20 20 25 28 26 24 24 24
35 35 34 34 35 35 35 35 36 37 37 38 38 40 42 42 42 42 41 42 42 43 42 42 40 39 37 36 35 33 32 30 29 28 26 24 23 21 19 18 17 17 17 19 20 20 20 20 20 20 20 20 20 20 20 20 21 21 22 22 22 22 23 23 22 22 22 22 23 23 23 23 23 22 20 19 18 17 14 17 24 29 29 24 21
35 35 34 35 35 34 34 35 35 36 36 37 37 38 39 39 40 40 40 41 41 42 41 41 39 38 36 35 34 33 32 31 30 28 26 25 24 22 20 18 16 17 18 20 21 21 21 22 22 21 21 21 21 21 21 21 22 23 23 23 23 24 24 24 23 23 22 22 24 22 22 23 23 20 19 17 16 16 15 16 20 25 27 26 23
35 35 35 35 34 33 33 34 34 34 34 35 36 37 37 37 37 38 39 40 41 41 40 39 38 37 37 36 35 34 33 32 30 29 27 26 25 23 20 18 17 17 19 21 22 22 23 23 23 23 22 22 22 23 23 23 23 24 23 23 24 25 25 25 24 24 23 23 24 21 20 23 22 18 18 18 15 14 14 16 20 23 22 23 23
35 35 34 33 32 31 32 32 32 32 33 34 35 35 36 36 36 36 38 39 39 40 39 38 37 37 37 37 36 35 34 33 31 29 28 27 25 23 20 18 17 18 20 22 23 23 24 25 25 24 24 24 24 24 24 24 25 25 24 25 25 25 26 26 25 25 24 24 24 22 21 25 24 18 17 17 15 14 14 15 18 19 16 16 18
33 32 31 30 29 30 31 31 31 32 33 33 34 35 36 36 36 36 37 38 39 38 38 38 38 38 37 37 36 36 34 33 31 30 29 28 26 24 21 18 17 19 21 23 23 24 26 27 26 25 25 25 26 25 25 26 26 26 25 25 25 26 26 26 26 25 25 24 25 25 25 25 24 20 17 16 14 13 14 15 16 15 13 12 15
31 30 29 29 29 30 30 31 32 33 34 35 36 36 37 37 38 38 38 38 38 38 38 38 37 37 37 37 36 35 34 33 32 31 30 28 26 24 22 20 20 21 23 24 25 27 29 29 27 26 25 26 27 27 27 28 27 27 26 24 24 25 24 24 24 25 25 24 26 28 27 25 24 22 16 14 14 14 15 17 16 15 15 15 18
29 29 28 29 29 30 31 32 33 34 35 35 36 36 37 37 38 38 38 37 37 37 37 37 36 36 36 36 36 35 35 34 33 32 31 29 27 25 23 22 23 24 26 28 29 30 31 30 29 27 26 26 27 28 28 29 29 28 27 26 27 26 25 24 23 24 25 25 27 30 29 25 24 23 18 15 17 18 19 20 18 17 20 22 24
29 29 28 28 29 30 31 32 33 33 34 34 34 34 34 35 35 35 35 35 35 35 35 35 36 36 36 36 36 35 35 34 33 33 32 30 28 27 26 26 26 28 30 32 32 33 33 32 30 28 27 28 29 29 29 30 30 30 29 30 30 30 30 30 29 28 29 29 31 32 30 27 25 23 19 18 19 21 21 20 18 19 23 27 28
28 29 28 28 29 30 31 32 32 31 31 31 31 32 32 32 32 32 33 32 32 32 33 34 35 36 36 35 35 36 36 35 34 34 33 31 30 29 29 30 31 32 35 36 36 36 35 34 33 30 30 31 31 30 30 30 31 31 31 32 32 32 34 34 32 32 33 33 34 35 34 31 28 25 21 18 19 21 20 19 18 20 24 28 29
28 28 28 28 29 29 29 29 29 28 28 29 29 30 30 30 30 30 30 31 31 32 32 33 33 33 33 34 36 37 37 35 34 34 34 34 33 32 32 34 36 37 39 39 38 38 38 37 35 34 33 33 33 32 32 31 32 32 32 33 33 35 36 35 33 34 35 34 35 35 34 33 30 25 22 19 18 19 18 19 21 22 23 23 23
27 27 27 27 27 27 27 27 27 27 28 28 29 29 28 28 28 29 29 29 29 30 30 29 29 30 32 34 36 38 38 36 36 36 36 36 35 34 36 38 39 40 41 41 41 40 40 40 38 37 37 36 35 35 34 32 32 34 34 34 34 37 38 36 34 35 34 33 33 33 31 29 27 24 23 23 23 22 22 24 25 23 22 21 21
25 26 26 26 26 26 26 27 27 27 27 27 28 27 27 26 27 27 27 27 28 28 28 28 29 30 32 34 36 37 38 37 37 37 37 37 36 36 37 38 39 41 41 42 42 42 42 42 41 40 40 39 38 38 37 34 33 35 36 34 35 39 41 38 36 35 33 32 32 32 31 29 27 26 28 28 27 26 26 28 27 24 24 25 23
24 24 24 24 25 25 25 26 26 26 26 26 25 25 25 25 26 26 27 27 27 28 28 29 31 33 35 36 37 38 38 38 37 37 37 38 38 38 37 38 39 41 41 41 42 43 44 44 43 43 42 41 40 38 37 34 33 34 35 34 37 42 41 37 35 34 32 31 31 30 30 30 29 29 30 31 31 30 29 29 28 26 25 26 25
21 22 22 23 23 23 24 24 24 24 24 23 23 24 24 25 25 26 26 27 27 28 29 30 32 34 35 36 37 37 37 38 38 38 38 38 38 36 36 38 39 38 38 39 40 43 44 44 44 43 41 39 38 36 35 32 29 30 34 37 40 41 38 36 35 32 29 30 29 28 28 28 28 30 31 32 32 31 30 28 28 26 25 25 25
19 19 20 20 21 21 21 22 22 21 22 22 22 23 23 24 24 24 25 26 26 27 29 30 31 32 33 34 36 37 37 38 39 38 38 37 36 35 34 35 36 34 35 38 41 43 44 44 43 41 39 38 38 36 36 34 30 31 34 36 36 34 33 34 34 31 29 29 28 28 28 29 30 31 32 33 33 30 27 26 25 25 25 25 25
17 18 19 19 20 20 20 20 20 20 21 22 22 22 22 22 23 23 24 25 25 27 28 29 29 30 32 33 35 36 37 37 37 37 36 36 36 35 34 34 34 32 33 38 41 42 42 42 42 40 38 38 38 37 37 37 35 35 36 34 32 30 29 31 32 31 30 29 29 30 31 31 33 33 33 34 33 28 24 22 22 23 24 24 24
17 18 19 19 18 18 18 19 19 19 20 20 20 21 21 21 22 22 23 24 25 26 26 27 28 29 30 32 34 34 34 35 35 35 35 35 34 34 34 35 35 34 34 39 41 40 40 41 41 40 39 39 38 37 37 37 36 35 35 34 32 31 31 32 33 32 31 31 31 33 34 34 34 34 35 34 30 25 21 20 21 22 23 23 23
17 17 18 17 17 17 17 17 18 18 18 19 19 20 20 20 21 22 22 23 24 24 25 25 26 27 29 30 31 31 30 30 30 30 30 30 30 30 30 31 32 32 34 39 40 40 41 41 39 37 36 36 35 35 35 34 33 31 31 30 30 30 31 32 32 31 31 32 32 33 34 34 34 35 34 31 26 22 20 19 20 22 22 23 23
16 16 16 15 15 15 15 15 16 16 16 16 17 18 19 19 20 20 21 22 22 23 23 23 23 24 26 28 28 27 25 24 25 24 24 24 25 25 25 25 26 26 29 33 35 36 38 38 36 33 32 32 31 32 34 34 33 32 31 30 30 30 30 29 29 30 32 33 32 32 33 33 33 32 30 28 25 22 19 19 20 21 21 22 23
15 15 14 13 13 12 13 13 14 14 14 15 15 16 16 17 18 19 19 20 21 22 21 21 21 22 24 25 25 24 22 22 23 23 23 23 22 22 21 21 22 22 25 27 29 30 32 33 33 33 32 31 30 31 32 32 31 31 30 29 29 30 29 29 30 30 31 31 31 32 32 32 31 30 28 26 24 21 18 18 20 21 20 20 22
14 13 13 12 12 11 11 12 12 13 13 13 14 14 15 15 16 17 18 18 19 19 20 20 21 21 22 22 22 21 21 21 21 20 19 19 19 19 18 19 19 20 21 23 24 25 27 29 30 31 30 28 27 27 28 28 27 28 28 27 27 28 28 29 30 31 31 31 30 29 29 28 28 27 25 24 22 20 18 19 21 21 20 19 20
13 13 12 12 11 11 11 10 11 11 11 12 12 12 13 13 14 15 15 15 15 16 17 18 18 18 18 18 18 20 20 19 18 17 17 17 17 17 17 17 16 16 16 16 18 21 23 25 26 25 23 22 23 22 22 23 24 25 25 25 25 26 26 27 30 32 33 33 33 32 30 28 27 26 24 23 23 20 18 19 20 21 19 19 20
15 14 13 12 11 11 10 10 9 9 9 9 10 10 9 9 10 11 12 12 13 13 13 14 14 14 14 14 14 15 17 16 14 13 13 13 14 15 15 16 16 16 16 15 15 18 21 22 23 22 20 19 20 20 20 20 21 23 23 23 24 24 25 27 29 30 32 33 34 33 31 29 28 27 25 25 24 21 19 19 20 20 19 19 20
18 16 14 13 12 11 11 10 10 9 8 8 8 9 8 7 6 7 7 8 9 9 9 9 9 9 10 11 10 11 12 13 12 12 12 12 13 14 15 15 15 16 16 16 17 19 20 21 21 21 19 19 20 20 20 20 21 22 23 23 24 24 25 27 29 30 31 32 32 31 30 29 29 28 27 27 25 22 20 19 19 20 20 20 21
18 17 15 14 13 12 12 11 11 10 10 9 9 9 9 8 6 5 5 5 5 5 5 5 5 5 6 6 7 8 9 10 9 9 9 10 11 12 12 13 14 14 14 16 19 20 20 20 21 21 20 21 22 22 22 22 22 22 23 23 24 24 25 27 28 29 29 30 30 30 30 30 30 30 29 27 24 22 21 20 19 20 21 20 20
16 16 15 14 14 13 12 11 11 10 9 9 9 8 8 8 8 7 5 5 4 4 4 5 5 4 3 2 2 3 4 5 5 6 6 7 8 10 10 11 11 11 12 13 16 17 15 14 14 14 14 14 15 15 15 15 16 17 19 20 22 23 23 24 25 25 26 27 28 28 29 29 29 29 28 26 24 22 21 20 19 19 20 20 20
14 14 14 13 13 12 11 11 10 10 9 9 8 8 8 8 8 8 8 7 6 5 4 4 4 4 4 3 3 4 4 4 5 6 8 10 11 12 12 12 11 11 11 10 9 9 8 8 8 9 9 10 10 11 12 12 12 13 14 15 17 18 19 20 20 21 23 24 25 26 27 27 26 26 26 25 24 22 21 20 19 19 20 20 20
14 14 14 12 12 12 11 11 10 10 9 9 8 8 8 7 7 7 7 7 7 6 5 4 3 4 5 6 6 6 6 6 5 6 8 10 12 12 13 13 12 10 10 9 8 8 9 9 10 10 11 12 13 13 14 15 15 16 16 17 18 18 18 18 19 20 21 21 22 24 25 25 25 25 25 24 23 22 21 20 19 20 20 20 20
14 14 14 12 12 12 11 11 10 9 9 9 8 8 7 7 6 6 6 7 7 6 6 5 5 5 5 6 6 5 5 5 6 6 8 11 13 13 11 10 10 8 8 9 10 10 10 11 11 12 12 13 14 15 15 16 16 17 17 18 19 20 20 20 20 20 20 21 21 22 22 23 23 23 23 23 23 21 20 19 19 19 19 20 20
13 13 14 13 12 12 11 11 10 9 9 8 8 8 8 7 7 7 7 6 6 6 6 5 5 5 4 4 4 4 4 5 6 7 9 10 11 11 8 7 7 8 8 8 10 10 11 12 13 13 14 15 15 16 16 16 16 16 17 17 17 18 19 19 19 19 20 21 21 21 21 21 22 22 22 22 22 21 20 20 19 19 19 19 18
13 13 13 12 12 11 11 11 10 10 9 9 9 8 9 9 8 8 7 6 5 5 5 4 3 3 3 3 3 3 3 4 5 6 7 8 8 8 7 7 7 7 8 8 9 10 11 11 12 13 13 14 14 15 15 16 16 16 17 17 17 17 18 18 18 18 19 19 20 20 20 20 20 21 21 21 21 21 20 20 19 19 19 19 18
13 13 12 12 11 11 11 11 11 10 10 10 10 9 9 9 9 8 7 6 5 4 3 2 1 1 1 2 5 6 5 5 5 6 6 7 7 7 7 8 8 8 8 9 9 9 10 10 11 11 12 12 13 14 14 15 15 16 16 17 17 18 18 18 18 18 18 18 18 18 18 19 19 19 19 19 20 20 20 19 19 19 19 19 18
13 13 12 11 11 11 11 11 11 11 10 10 10 10 9 8 7 6 5 5 4 3 3 2 1 1 1 3 6 8 7 7 7 8 8 8 8 7 8 8 8 8 9 9 9 10 10 10 11 11 12 12 13 14 14 15 16 16 16 16 17 18 18 18 18 18 17 17 18 17 17 18 18 19 19 19 20 20 20 20 19 19 18 17 17
12 12 12 11 11 11 11 11 11 10 10 10 9 8 7 6 6 5 5 4 4 4 3 2 1 1 1 2 4 7 8 8 8 8 8 8 7 7 8 8 9 9 9 10 10 11 11 11 12 13 13 14 15 15 16 16 17 17 17 17 17 18 18 18 18 18 18 17 18 18 18 18 18 18 19 20 20 20 20 20 19 18 17 16 15
11 12 12 11 11 11 11 11 11 10 9 8 7 6 6 5 5 5 4 4 4 3 2 2 2 2 2 2 5 8 9 8 8 7 7 7 7 7 7 8 9 10 10 11 12 12 13 13 14 14 15 15 16 16 16 17 17 17 18 18 18 18 19 19 19 18 19 19 19 19 19 19 18 17 18 18 19 19 19 19 18 17 16 15 15
12 12 12 12 11 10 10 10 10 9 8 7 6 6 5 4 4 4 3 3 3 2 2 2 3 3 4 5 7 8 8 8 7 7 7 7 7 8 8 9 10 11 11 12 13 14 14 15 15 15 16 16 16 17 17 17 18 18 18 18 18 19 19 19 19 19 18 19 19 19 18 17 17 16 16 17 17 17 17 17 16 16 15 15 14
12 12 12 12 11 10 9 9 8 7 7 6 5 5 4 3 3 3 2 2 2 2 3 3 4 4 5 6 6 7 7 8 8 8 8 8 8 9 9 10 11 12 12 13 13 14 15 15 16 16 16 16 16 16 17 17 17 18 18 18 19 19 19 18 18 18 18 18 18 18 17 16 15 16 16 16 16 15 16 16 15 15 15 15 15
11 11 11 10 10 9 9 8 7 6 6 5 4 4 3 2 2 2 2 3 3 3 3 4 4 4 5 6 6 7 8 9 9 9 10 10 10 10 11 12 12 13 13 13 14 15 15 16 16 17 17 16 16 17 17 17 17 17 18 18 19 19 19 18 18 18 18 18 18 18 18 16 15 15 15 15 14 14 15 15 15 15 15 15 15
10 10 9 9 9 9 8 7 6 6 5 4 4 3 3 2 3 3 3 3 3 3 4 4 5 5 6 6 7 8 9 10 10 11 11 11 12 12 12 13 14 14 14 14 15 15 16 17 17 18 18 18 18 18 18 18 17 17 17 18 18 19 18 18 18 18 18 18 18 18 17 17 16 16 15 14 14 14 15 15 15 16 16 15 15
9 9 9 8 8 8 7 6 6 5 4 4 3 3 2 3 3 3 3 4 4 4 5 5 6 7 7 8 8 9 10 11 12 12 13 13 13 13 13 14 15 15 15 16 16 16 17 17 18 19 19 20 20 20 19 19 19 18 18 18 18 18 18 18 18 18 18 17 17 17 17 17 17 17 16 15 15 15 16 16 16 16 16 15 14
8 8 8 7 7 6 6 6 5 5 4 3 3 3 3 3 3 4 4 5 5 5 6 7 7 8 9 9 10 11 12 13 14 14 14 14 14 14 15 15 16 17 17 17 17 17 17 17 18 19 19 20 20 20 20 20 20 19 19 18 18 18 18 18 18 17 17 17 17 17 17 17 17 17 17 16 16 16 16 16 16 16 15 14 13
7 7 6 6 6 6 6 5 5 4 3 3 3 3 3 4 4 5 5 6 7 7 8 8 9 10 11 11 12 13 14 14 15 15 15 15 16 16 16 17 17 18 18 18 17 17 17 17 18 18 19 19 20 20 21 21 20 20 20 19 18 18 17 17 17 16 16 15 16 16 16 17 17 17 17 16 16 15 16 16 15 15 14 13 13
7 6 6 6 6 5 5 5 4 3 3 3 3 4 4 5 6 6 7 8 9 9 10 10 11 12 13 13 14 15 15 16 17 17 17 17 17 17 18 18 18 18 19 19 18 18 17 17 17 18 18 18 19 20 20 20 21 20 20 20 18 17 17 16 16 15 13 13 13 13 13 14 15 15 15 15 15 15 15 14 14 13 13 12 11
6 6 5 5 5 5 4 4 3 3 3 4 5 5 6 7 8 8 9 10 11 11 12 12 13 14 15 15 16 17 17 18 18 19 19 19 19 19 19 19 19 19 19 19 19 18 18 18 18 18 18 18 18 19 19 20 20 20 20 20 18 17 17 16 15 14 12 11 11 12 12 12 13 12 12 12 12 12 12 12 12 11 11 10 10
Wind_Direction
202 203 204 205 206 206 207 205 204 204 205 205 205 203 200 196 192 191 190 189 189 189 188 187 186 186 186 187 186 186 185 185 186 187 187 187 186 184 181 177 178 182 187 195 203 209 217 219 218 216 216 220 226 231 238 242 245 245 244 245 243 241 239 231 233 250 262 266 270 278 284 289 295 305 311 313 318 322 325 330 333 336 338 339 344
203 204 205 206 207 207 206 205 205 206 207 206 206 204 200 196 194 193 192 192 191 191 190 189 189 189 190 190 190 190 189 189 190 190 190 191 189 187 185 183 183 187 193 201 207 212 217 222 225 224 222 227 233 239 243 244 246 247 247 247 247 246 244 239 239 250 266 274 275 278 282 287 295 305 311 313 318 321 324 329 332 336 339 340 343
205 205 206 207 208 208 207 206 206 207 207 207 207 205 201 198 196 195 194 194 193 193 192 192 192 192 193 193 193 193 193 193 194 194 195 195 193 190 189 190 190 194 200 206 210 214 218 223 227 229 229 234 238 241 244 246 247 249 250 251 250 249 246 244 245 251 267 279 281 280 282 287 296 304 310 313 317 320 323 327 330 334 338 339 341
206 206 207 208 208 208 208 207 206 206 207 207 207 205 202 199 197 197 196 195 194 193 194 194 194 195 196 196 197 197 197 197 198 198 199 200 199 196 193 194 197 202 208 212 215 219 223 226 230 233 236 239 243 244 245 247 249 251 253 253 252 251 249 248 251 256 265 275 280 281 284 290 297 305 311 314 316 319 322 325 328 331 335 337 338
206 207 207 208 208 208 208 208 207 207 206 206 206 205 203 200 199 199 198 197 195 195 195 196 197 198 199 200 200 200 200 200 201 202 202 203 205 203 201 199 201 206 212 217 222 226 228 231 235 239 241 242 245 247 248 250 252 254 255 254 253 251 250 252 255 258 263 270 277 283 287 293 300 306 312 315 316 318 321 324 327 329 330 332 334
206 207 207 207 207 208 208 208 208 208 207 206 206 204 203 201 201 200 199 198 197 196 197 198 200 201 202 203 204 204 204 203 204 205 205 205 206 207 207 205 206 210 216 221 228 231 234 237 240 243 245 247 249 251 252 253 254 256 257 256 254 252 252 253 255 258 263 268 275 282 287 293 300 305 311 316 318 320 322 324 324 325 328 330 331
205 206 206 206 207 208 208 208 208 209 208 207 207 205 204 203 202 202 201 199 198 199 200 201 202 204 205 206 207 208 207 206 207 209 209 208 209 209 209 209 210 215 221 227 232 235 238 240 243 246 248 251 254 255 256 256 256 257 258 257 256 254 253 254 255 258 263 269 273 278 284 291 295 300 307 315 319 322 325 323 320 321 326 329 327
203 204 204 205 208 209 208 209 210 210 209 208 208 206 205 205 204 203 202 201 201 202 203 204 204 205 207 208 210 211 210 210 210 211 211 212 213 213 212 212 214 219 225 231 235 238 241 243 245 248 251 253 256 258 258 258 257 258 258 257 255 255 254 254 255 258 262 267 272 276 283 287 290 297 305 313 318 321 324 320 315 317 322 323 320
201 203 203 205 207 208 208 208 209 209 208 207 207 207 206 206 205 205 204 203 203 204 206 206 206 206 208 210 212 213 213 213 213 213 214 215 216 217 216 216 220 225 231 235 238 241 243 245 247 249 251 253 256 258 258 258 258 258 258 257 255 254 254 253 254 257 260 264 268 273 279 282 287 295 301 306 312 313 312 311 310 314 317 315 313
201 202 203 205 206 206 206 207 207 206 206 206 207 207 206 207 206 206 205 205 205 206 207 208 208 208 209 211 213 215 216 216 216 216 217 218 220 219 218 220 224 230 235 239 242 245 247 249 250 250 251 253 254 256 257 257 258 259 260 259 257 255 253 252 253 255 257 259 264 268 273 276 280 286 293 299 306 304 301 306 311 313 314 312 313
202 202 204 204 204 203 204 204 204 205 205 206 207 207 207 208 208 208 208 207 207 208 209 209 210 211 212 213 215 216 217 217 218 219 219 221 223 222 221 223 228 234 239 242 245 249 251 251 250 249 250 252 253 254 256 257 258 259 260 260 259 256 254 253 254 255 255 257 262 264 264 269 276 281 286 293 298 293 291 300 307 306 306 308 309
202 203 203 202 202 202 202 202 203 205 206 206 207 208 208 209 209 209 209 208 209 210 211 212 212 212 214 215 217 218 219 219 220 221 222 222 224 225 226 228 233 238 242 245 248 252 252 251 250 249 249 252 254 255 256 256 257 258 261 262 261 259 257 256 256 257 256 257 261 261 259 264 272 275 278 286 288 282 285 294 297 291 288 290 291
202 202 202 201 201 201 201 202 203 205 207 208 209 209 209 209 209 210 210 210 210 212 213 214 214 214 215 216 219 220 221 221 222 223 224 224 225 227 228 231 238 243 246 248 251 252 251 250 249 248 249 251 253 255 256 257 256 256 257 258 257 257 256 256 258 260 260 259 259 261 262 263 267 270 274 278 276 275 283 289 285 276 276 279 282
201 202 202 200 200 200 201 202 204 206 208 208 208 208 208 209 209 210 210 210 210 212 213 214 215 216 217 219 221 223 223 223 224 225 225 226 227 228 230 236 243 248 249 250 251 252 251 250 249 249 250 251 253 255 257 258 258 257 255 253 253 251 248 247 250 254 257 257 256 261 265 264 263 269 273 269 269 276 283 282 275 271 277 282 285
200 201 201 201 200 200 202 203 205 207 207 207 206 207 208 209 208 208 208 209 211 213 214 216 217 218 219 221 223 226 227 226 225 226 227 227 228 230 234 239 245 251 252 251 251 251 250 250 250 250 251 253 254 256 258 261 261 260 258 256 256 254 250 249 250 251 252 254 257 263 267 265 262 267 271 269 272 276 274 269 268 276 285 290 291
198 199 200 200 201 202 203 204 204 204 204 203 204 205 207 208 208 209 209 210 213 215 217 219 220 220 221 223 226 229 230 228 227 228 229 229 230 233 238 242 247 252 254 252 250 250 250 250 251 251 252 254 255 256 259 262 262 261 260 260 260 258 256 256 256 255 253 254 258 262 264 263 262 265 267 267 271 269 262 262 272 283 291 295 295
197 197 199 200 202 203 203 202 201 201 201 202 203 205 207 208 209 211 211 212 214 217 219 221 222 223 224 226 230 232 233 231 230 230 231 231 231 235 241 245 248 252 254 253 251 250 250 251 252 253 254 256 256 258 259 260 262 262 261 261 262 261 261 262 260 258 256 256 258 260 260 259 258 257 256 255 256 254 256 268 280 286 291 293 293
196 197 198 200 201 202 203 203 203 202 203 204 205 206 207 208 210 213 214 216 217 219 222 224 226 228 230 231 234 235 236 235 233 233 233 233 234 238 242 245 248 252 253 253 252 251 251 253 254 255 256 258 259 260 259 258 260 262 262 262 261 262 265 267 264 262 260 259 258 257 255 253 249 248 250 248 243 242 253 272 282 285 285 281 280
197 197 198 200 201 203 204 205 205 205 206 207 207 207 207 209 212 215 217 219 222 224 227 230 232 235 236 237 238 238 239 238 236 236 236 235 236 239 242 244 246 250 252 253 253 253 253 254 255 256 258 259 260 261 261 259 258 260 262 262 260 263 269 271 268 267 265 261 258 256 252 249 245 245 247 246 243 247 261 275 280 279 279 276 273
197 198 200 201 202 204 205 206 206 207 208 209 209 210 212 213 215 217 220 223 227 230 233 236 238 239 239 239 239 239 240 240 240 240 239 238 239 240 240 242 245 248 251 253 255 256 257 258 258 259 260 261 261 262 264 262 259 260 261 257 257 265 271 272 269 269 268 264 261 258 254 251 246 243 244 245 248 253 264 274 277 275 275 274 269
196 197 199 200 201 203 205 206 207 209 211 213 214 216 218 220 221 223 226 229 231 232 234 235 237 239 239 240 240 242 243 245 245 244 242 241 241 241 241 244 247 249 252 254 257 259 261 262 263 264 263 264 264 264 265 263 260 259 260 261 263 268 271 271 271 270 266 264 262 259 254 250 246 245 245 247 248 252 260 272 278 277 274 271 267
193 193 195 196 198 201 202 205 209 212 215 217 218 219 221 224 227 229 230 230 230 231 232 234 236 238 240 241 243 245 246 247 247 247 246 247 248 247 246 247 250 253 256 257 259 261 263 266 268 269 269 269 270 269 268 267 262 259 260 264 267 268 267 268 269 266 261 259 258 254 251 247 245 245 246 246 246 249 260 273 278 276 272 269 267
190 190 192 194 198 201 204 208 212 215 217 218 219 221 223 224 226 227 227 227 227 228 230 232 235 238 241 243 245 246 248 250 252 254 256 256 256 254 252 251 252 255 258 261 263 264 267 269 271 273 274 275 275 274 273 271 267 263 263 263 262 261 261 262 261 258 256 254 251 250 249 247 245 245 247 246 245 249 261 273 275 271 268 266 266
185 187 190 193 197 202 206 210 212 215 217 218 218 220 221 221 222 223 224 225 225 227 229 232 234 238 243 246 249 251 253 256 258 260 261 261 261 260 259 257 255 254 256 262 265 267 270 272 275 277 278 278 278 278 276 273 269 265 265 264 262 260 258 256 254 252 250 248 246 247 248 246 245 247 249 248 246 251 262 273 276 272 267 265 268
181 184 188 192 196 200 204 207 211 214 216 217 216 216 217 218 218 220 222 223 225 228 231 234 237 241 246 250 254 257 259 262 264 265 266 267 268 267 266 264 262 259 258 262 266 269 271 274 277 279 279 280 280 278 274 271 267 264 263 263 262 259 256 255 254 251 248 245 244 245 247 247 248 250 250 248 246 252 264 274 277 273 268 268 271
174 178 182 187 192 196 199 201 206 210 213 216 217 219 220 220 219 221 222 224 227 231 234 237 241 244 249 255 259 263 265 268 271 273 274 274 274 274 274 272 271 268 266 266 269 270 272 273 275 275 275 276 276 274 272 272 270 267 265 263 260 257 255 256 255 252 250 248 248 249 252 252 252 251 248 245 247 256 267 275 276 271 268 270 272
164 167 172 177 181 186 190 192 196 201 204 210 213 217 222 224 223 224 225 226 229 232 236 240 243 248 254 259 265 269 273 274 277 280 282 282 281 281 279 276 274 271 269 270 272 274 276 277 277 276 276 275 274 273 273 273 271 268 265 261 257 254 253 254 256 256 255 254 253 255 256 255 253 250 247 246 251 261 269 272 272 270 268 269 271
153 155 160 165 169 175 182 185 189 193 198 204 209 214 220 224 226 230 233 235 237 239 242 246 250 256 262 267 273 276 278 280 284 288 289 287 287 285 280 278 276 273 271 273 275 277 278 278 279 280 281 282 281 277 274 272 270 268 265 262 258 256 254 253 254 257 260 260 260 259 257 254 251 250 249 250 257 264 268 268 270 270 267 265 267
146 147 152 157 160 166 173 179 185 190 193 199 204 212 220 225 229 235 241 245 248 250 253 257 262 267 270 274 278 280 283 289 295 297 296 294 292 291 288 287 285 282 282 285 285 282 280 281 282 285 288 290 288 285 281 277 274 272 270 267 264 260 257 254 253 256 259 261 262 262 259 256 254 252 251 255 261 265 267 266 267 267 265 262 263
136 139 143 146 149 155 160 163 171 178 183 190 195 201 211 222 230 236 241 247 252 255 259 264 270 274 276 279 282 284 291 300 304 302 298 295 292 290 290 292 293 292 291 289 282 278 280 282 285 287 290 291 289 287 286 283 280 277 274 272 268 265 261 258 256 257 258 259 260 261 260 257 256 254 254 258 263 264 264 264 263 262 259 259 261
131 131 135 136 137 143 146 147 153 157 161 170 179 183 188 195 210 225 232 240 248 254 260 267 272 276 281 288 294 298 304 310 307 298 292 289 287 285 285 286 287 288 288 281 272 268 270 272 276 279 281 282 283 284 283 281 279 278 278 276 273 270 266 265 265 264 263 261 260 260 259 257 257 257 258 259 261 262 260 258 257 256 255 257 260
131 129 131 131 132 136 139 141 144 148 149 154 161 171 177 177 179 195 210 222 232 239 242 246 253 264 278 292 304 313 320 321 312 302 299 298 294 290 288 286 283 282 283 279 274 274 273 272 273 275 274 274 276 279 281 280 279 279 279 279 278 276 273 275 276 274 270 268 266 264 263 261 259 259 259 258 257 257 255 252 250 253 255 257 261
133 132 135 135 135 137 139 140 142 145 149 153 157 164 173 177 179 179 178 184 201 214 220 227 233 235 244 282 303 308 322 325 311 297 296 297 296 293 293 292 289 287 287 283 279 281 285 287 288 289 287 286 290 296 299 299 297 295 291 288 287 286 285 286 285 280 276 274 273 270 268 266 263 261 259 257 255 253 250 250 250 251 253 256 261
131 132 134 136 137 138 140 142 145 148 151 155 159 162 166 170 175 174 169 169 175 189 209 234 246 236 225 227 233 239 253 272 284 288 287 284 286 288 289 290 288 285 287 292 296 305 318 329 335 337 336 334 333 334 332 330 327 323 317 310 305 301 298 296 292 288 284 280 275 272 271 269 266 262 259 257 254 249 248 249 249 249 250 254 260
131 131 132 135 137 138 140 144 146 148 151 153 155 159 160 161 164 168 172 174 175 179 191 210 233 239 236 238 243 250 257 263 273 288 290 286 286 289 293 299 300 294 290 296 310 324 331 334 336 335 333 331 331 330 328 325 324 323 321 318 315 312 308 305 300 297 294 289 282 279 276 272 269 265 260 256 251 247 247 248 249 249 251 253 258
134 134 135 139 141 141 142 145 147 148 151 152 153 154 157 159 160 161 164 168 171 175 183 195 213 230 240 244 246 255 269 273 272 280 289 293 297 301 305 307 309 308 304 302 306 313 319 322 324 324 323 322 323 323 322 321 320 319 317 315 313 311 309 308 306 304 302 299 294 289 283 278 273 268 262 256 252 249 250 252 251 251 252 253 255
138 139 141 143 145 145 145 145 146 148 149 149 152 153 152 152 154 156 157 159 165 171 177 187 204 217 233 257 265 260 267 277 278 280 286 293 300 308 314 310 303 304 307 305 305 308 311 313 314 315 316 317 319 319 320 320 319 318 317 315 314 312 310 310 308 306 304 303 300 296 290 284 278 272 263 257 254 253 254 254 252 251 251 251 252
139 139 140 141 143 145 145 145 146 148 148 148 150 151 150 150 151 152 153 154 158 165 173 182 196 207 221 267 296 290 278 279 280 283 290 298 306 315 320 319 315 312 309 307 307 308 308 310 311 313 315 319 320 321 323 323 323 322 322 321 318 316 314 312 308 305 303 304 304 302 296 290 284 276 267 259 257 257 257 256 253 250 248 247 248
140 138 139 141 142 143 145 146 146 147 148 148 149 151 151 151 150 151 154 156 156 158 162 164 169 183 208 304 311 310 311 313 313 317 324 325 326 326 322 318 318 315 313 314 314 314 315 318 318 319 322 323 324 324 325 326 327 327 327 325 322 320 319 316 312 309 306 305 306 306 303 298 293 286 276 268 266 265 263 260 257 252 249 249 253
141 140 141 142 143 143 143 144 144 146 147 147 149 150 150 149 150 152 154 154 154 157 159 155 162 165 56 8 332 318 322 332 334 334 337 335 332 331 327 324 324 322 321 323 324 323 325 326 325 327 328 327 326 327 327 327 328 328 327 327 324 321 319 316 313 312 309 307 306 307 306 304 302 296 289 283 279 276 271 266 262 257 254 256 262
142 141 141 142 143 144 143 142 142 142 142 142 143 144 145 144 147 151 153 157 160 166 172 174 196 221 93 39 330 314 321 333 333 329 332 334 331 331 328 324 324 324 323 323 323 322 323 325 324 325 326 325 325 325 324 324 325 324 324 325 323 320 319 316 311 309 307 306 306 306 306 307 306 300 295 291 288 282 275 269 264 261 259 261 265
142 142 140 139 140 141 140 138 136 134 136 137 137 138 142 144 148 154 161 168 175 185 200 218 248 255 232 243 283 299 313 324 323 321 324 325 323 325 322 318 318 318 317 318 319 318 319 321 321 321 321 321 321 320 319 320 320 320 320 322 321 320 320 318 315 312 308 305 304 304 304 306 305 300 294 290 285 280 275 270 266 263 261 262 266
142 140 137 135 136 136 134 133 133 133 136 138 138 142 145 150 158 167 175 184 193 215 244 257 267 269 264 269 282 294 305 312 312 313 316 315 312 313 311 308 308 309 309 310 312 312 313 314 314 314 315 315 314 314 315 316 316 316 317 318 318 318 318 318 318 316 312 309 306 304 303 304 303 298 293 288 282 277 273 269 265 263 263 266 269
138 137 135 135 135 134 133 134 137 139 140 141 143 148 152 157 169 181 198 214 226 245 264 271 276 278 277 280 288 294 299 303 305 305 306 305 304 303 302 300 300 301 302 304 305 305 306 308 308 308 310 310 310 311 312 313 313 314 314 314 313 314 315 316 315 313 310 307 305 304 303 304 303 299 296 293 287 281 275 270 267 268 269 270 272
134 135 137 139 139 140 140 141 142 142 143 145 147 152 161 177 198 214 231 244 252 262 268 269 274 277 276 280 286 290 293 296 297 297 298 298 298 298 297 297 298 298 298 300 301 301 303 305 305 306 308 309 309 310 311 312 312 312 311 311 311 311 313 313 310 308 305 303 302 302 301 299 297 297 298 299 295 287 281 277 275 274 273 273 274
136 139 141 143 145 144 144 144 145 146 150 154 160 167 183 203 223 238 246 250 255 262 265 269 275 279 281 285 287 289 290 291 291 293 294 295 296 297 297 296 297 298 300 301 302 302 304 304 305 307 309 310 311 312 311 311 312 310 310 310 309 309 311 311 307 304 302 300 298 298 297 294 292 291 292 293 292 286 282 280 278 276 276 277 278
141 142 142 144 145 145 146 150 154 158 162 166 170 183 204 221 231 241 248 253 259 265 268 273 278 280 284 288 288 288 290 290 290 291 293 294 295 296 296 296 297 298 300 301 302 303 304 305 306 307 309 310 311 311 311 311 311 310 310 309 308 309 310 309 305 303 301 298 296 294 291 289 288 287 287 288 286 284 283 282 281 281 282 282 281
142 142 144 147 147 150 156 161 162 165 169 172 181 195 211 228 238 246 253 260 266 269 272 276 280 281 284 287 288 288 289 289 289 291 293 293 295 295 295 295 297 298 299 301 303 303 305 306 307 308 309 309 309 310 310 311 310 310 310 309 309 308 308 307 304 302 300 297 295 293 290 288 288 287 287 287 285 284 284 284 283 284 286 284 284
143 145 149 153 155 159 165 167 168 173 175 180 199 218 229 240 249 255 260 265 270 275 278 280 283 284 285 286 287 287 287 288 289 290 291 292 293 295 295 295 297 298 299 301 302 303 304 306 306 306 307 307 307 308 309 309 310 310 310 309 308 307 308 306 304 302 301 298 296 294 291 289 288 288 288 288 288 287 286 285 284 285 285 283 284
148 150 154 160 165 169 173 174 178 188 196 208 226 237 245 252 256 260 265 269 273 277 281 283 284 285 286 286 287 287 287 287 288 290 291 293 295 296 296 296 298 298 298 299 300 301 302 303 303 304 304 304 305 306 307 308 309 309 308 307 307 307 306 305 302 301 300 299 298 297 295 293 291 290 290 290 289 287 286 286 286 285 283 282 285
154 158 165 174 178 182 188 194 199 209 222 234 242 247 253 259 263 266 269 273 277 280 282 283 284 284 285 286 287 287 287 288 289 291 293 295 296 296 297 297 297 297 297 297 298 299 300 300 301 301 302 302 303 304 305 306 307 307 306 305 305 305 304 302 299 298 298 299 301 302 301 301 300 298 296 294 291 289 288 287 285 284 283 283 286